Millville, NJ

4:16 AM EDT on May 26, 2018 (GMT -0400)
Millville Municipal

Weather History for KMIV - December, 2013

Change the Weather History Date:

Monday, December 9, 2013

  Actual Average Record
Temperature  
Mean Temperature 35 °F -  
Max Temperature 37 °F 48 °F 71 °F (1966)
Min Temperature 33 °F 29 °F 13 °F (1976)
Degree Days  
Heating Degree Days 30    
Moisture  
Dew Point 35 °F    
Average Humidity 99    
Maximum Humidity 100    
Minimum Humidity 93    
Precipitation  
Precipitation 1.51 in - - ()
Sea Level Pressure  
Sea Level Pressure 30.10 in    
Wind  
Wind Speed 7 mph (WNW)    
Max Wind Speed 12 mph    
Max Gust Speed 18 mph    
Visibility 6 miles    
Events Rain    
Averages and records for this station are not official NWS values.
T = Trace of Precipitation, MM = Missing Value Source: NWS Daily Summary

Daily Weather History Graph

Daily Weather History Graph

Search for Another Location

Airport or City:

Astronomy

Dec. 09, 2013 Rise Set
Actual Time 7:08 AM EST 4:36 PM EST
Civil Twilight 6:38 AM EST 5:06 PM EST
Nautical Twilight 6:05 AM EST 5:40 PM EST
Astronomical Twilight 5:32 AM EST 6:12 PM EST
Moon 12:02 PM EST (12/9) No Moon Set
Length of Visible Light 10h 28m
Length of Day
9h 28m
Waxing Crescent, 51% of the Moon is Illuminated
Dec 9
Waxing Crescent
Dec 17
Full
Dec 25
Last Quarter
Jan 1
New
Jan 7
First Quarter

Hourly Weather History & Observations

Time (EST) Temp. Windchill Dew Point Humidity Pressure Visibility Wind Dir Wind Speed Gust Speed Precip Events Conditions
12:28 AM 33.1 °F 25.5 °F 33.1 °F 100% 30.22 in 5.0 mi ENE 9.2 mph - 0.11 in Rain Rain
12:54 AM 33.1 °F 26.9 °F 33.1 °F 100% 30.23 in 4.0 mi North 6.9 mph - 0.21 in Rain Heavy Rain
1:46 AM 34.0 °F 27.2 °F 34.0 °F 100% 30.21 in 6.0 mi North 8.1 mph - 0.19 in Rain Rain
1:54 AM 34.0 °F 27.2 °F 34.0 °F 100% 30.21 in 5.0 mi NNE 8.1 mph - 0.23 in Rain Rain
2:25 AM 34.0 °F 28.0 °F 34.0 °F 100% 30.20 in 5.0 mi North 6.9 mph - 0.13 in Rain Heavy Rain
2:54 AM 34.0 °F 28.0 °F 34.0 °F 100% 30.18 in 7.0 mi NNE 6.9 mph - 0.25 in Rain Light Rain
3:54 AM 34.0 °F 28.8 °F 34.0 °F 100% 30.13 in 4.0 mi NNE 5.8 mph - 0.21 in Rain Rain
4:21 AM 35.1 °F 29.3 °F 35.1 °F 100% 30.10 in 6.0 mi NNE 6.9 mph - 0.08 in Rain Rain
4:35 AM 35.1 °F 29.3 °F 35.1 °F 100% 30.09 in 6.0 mi NNE 6.9 mph - 0.12 in Rain Light Rain
4:54 AM 35.1 °F 29.3 °F 35.1 °F 100% 30.11 in 6.0 mi NNW 6.9 mph - 0.14 in Rain Light Rain
5:22 AM 35.1 °F 30.1 °F 35.1 °F 100% 30.11 in 2.5 mi NW 5.8 mph - 0.03 in Rain Light Rain
5:29 AM 35.1 °F 29.3 °F 35.1 °F 100% 30.11 in 3.0 mi NNW 6.9 mph - 0.04 in Rain Light Rain
5:40 AM 35.1 °F 28.6 °F 35.1 °F 100% 30.12 in 2.5 mi North 8.1 mph - 0.07 in Rain Rain
5:47 AM 35.1 °F 29.3 °F 35.1 °F 100% 30.13 in 2.5 mi NW 6.9 mph - 0.08 in Rain Light Rain
5:54 AM 35.1 °F 29.3 °F 35.1 °F 100% 30.14 in 2.5 mi WNW 6.9 mph - 0.11 in Rain Rain
6:11 AM 35.1 °F 27.9 °F 34.0 °F 96% 30.12 in 4.0 mi North 9.2 mph - 0.08 in Rain Rain
6:24 AM 35.1 °F 29.3 °F 34.0 °F 96% 30.11 in 8.0 mi North 6.9 mph - 0.11 in Rain Light Rain
6:31 AM 35.1 °F 27.4 °F 34.0 °F 96% 30.11 in 6.0 mi NNE 10.4 mph - 0.12 in Rain Light Rain
6:54 AM 35.1 °F 31.0 °F 35.1 °F 100% 30.11 in 5.0 mi North 4.6 mph - 0.16 in Rain Light Rain
7:14 AM 35.1 °F 27.9 °F 35.1 °F 100% 30.10 in 10.0 mi West 9.2 mph - 0.01 in Rain Light Rain
7:44 AM 36.0 °F 33.3 °F 35.1 °F 97% 30.10 in 4.0 mi North 3.5 mph - 0.02 in Rain Light Rain
7:54 AM 35.1 °F - 34.0 °F 96% 30.10 in 3.0 mi Calm Calm - 0.02 in Rain Light Rain
8:05 AM 35.1 °F 31.0 °F 35.1 °F 100% 30.10 in 2.5 mi NW 4.6 mph - 0.00 in Rain Light Rain
8:11 AM 35.1 °F 32.2 °F 35.1 °F 100% 30.10 in 1.8 mi WNW 3.5 mph - 0.01 in Rain Light Rain
8:20 AM 35.1 °F 32.2 °F 35.1 °F 100% 30.10 in 2.0 mi West 3.5 mph - 0.01 in Rain Light Rain
8:24 AM 35.1 °F 31.0 °F 35.1 °F 100% 30.10 in 1.8 mi West 4.6 mph - 0.03 in Rain Rain
8:33 AM 35.1 °F 31.0 °F 35.1 °F 100% 30.11 in 2.0 mi West 4.6 mph - 0.04 in Rain Rain
8:36 AM 35.1 °F 30.1 °F 35.1 °F 100% 30.10 in 3.0 mi WSW 5.8 mph - 0.05 in Rain Light Rain
8:54 AM 35.1 °F - 35.1 °F 100% 30.10 in 7.0 mi Calm Calm - 0.05 in Rain Light Rain
9:54 AM 36.0 °F 29.0 °F 35.1 °F 97% 30.12 in 10.0 mi West 9.2 mph - 0.01 in Rain Light Rain
10:19 AM 36.0 °F 32.1 °F 36.0 °F 100% 30.10 in 2.5 mi WSW 4.6 mph - 0.02 in Rain Rain
10:31 AM 36.0 °F 31.1 °F 36.0 °F 100% 30.10 in 8.0 mi West 5.8 mph - 0.02 in Rain Light Rain
10:54 AM 36.0 °F 31.1 °F 36.0 °F 100% 30.09 in 9.0 mi WSW 5.8 mph - 0.02 in Rain Light Rain
11:36 AM 36.0 °F 32.1 °F 36.0 °F 100% 30.07 in 2.5 mi West 4.6 mph - 0.04 in Rain Light Rain
11:44 AM 37.0 °F 31.6 °F 37.0 °F 100% 30.07 in 4.0 mi West 6.9 mph - 0.04 in Rain Light Rain
11:54 AM 36.0 °F 30.3 °F 36.0 °F 100% 30.07 in 8.0 mi WSW 6.9 mph - 0.04 in Rain Light Rain
12:54 PM 36.0 °F 28.5 °F 36.0 °F 100% 30.05 in 4.0 mi WSW 10.4 mph 18.4 mph 0.01 in   Overcast
1:27 PM 36.0 °F 32.1 °F 36.0 °F 100% 30.02 in 2.5 mi WSW 4.6 mph - 0.04 in Rain Rain
1:35 PM 37.0 °F 31.0 °F 36.0 °F 96% 30.04 in 4.0 mi WSW 8.1 mph - 0.05 in Rain Light Rain
1:54 PM 37.0 °F 29.3 °F 36.0 °F 96% 30.04 in 10.0 mi WSW 11.5 mph - 0.05 in   Overcast
2:54 PM 37.9 °F 32.7 °F 37.0 °F 97% 30.04 in 10.0 mi West 6.9 mph - N/A   Overcast
3:54 PM 37.9 °F 32.7 °F 36.0 °F 93% 30.05 in 10.0 mi WSW 6.9 mph - N/A   Overcast
4:30 PM 36.0 °F 31.1 °F 36.0 °F 100% 30.04 in 10.0 mi West 5.8 mph - N/A   Mostly Cloudy
4:38 PM 36.0 °F 32.1 °F 36.0 °F 100% 30.04 in 10.0 mi West 4.6 mph - N/A   Mostly Cloudy
4:54 PM 36.0 °F 31.1 °F 35.1 °F 97% 30.04 in 10.0 mi WSW 5.8 mph - N/A   Overcast
5:35 PM 36.0 °F 30.3 °F 35.1 °F 97% 30.04 in 10.0 mi West 6.9 mph - N/A   Overcast
5:54 PM 35.1 °F 30.1 °F 35.1 °F 100% 30.06 in 10.0 mi West 5.8 mph - N/A   Overcast
6:54 PM 36.0 °F 31.1 °F 35.1 °F 97% 30.08 in 10.0 mi WSW 5.8 mph - N/A   Overcast
7:54 PM 36.0 °F 31.1 °F 35.1 °F 97% 30.09 in 9.0 mi West 5.8 mph - N/A   Overcast
8:52 PM 35.6 °F 30.7 °F 35.6 °F 100% 30.09 in 6.0 mi WNW 5.8 mph - N/A   Overcast
8:54 PM 36.0 °F 31.1 °F 35.1 °F 97% 30.09 in 6.0 mi WNW 5.8 mph - N/A   Overcast
9:54 PM 35.1 °F 29.3 °F 35.1 °F 100% 30.09 in 5.0 mi NW 6.9 mph - N/A   Overcast
10:54 PM 35.1 °F 30.1 °F 35.1 °F 100% 30.08 in 4.0 mi West 5.8 mph - N/A   Overcast
11:54 PM 35.1 °F 32.2 °F 35.1 °F 100% 30.08 in 5.0 mi WNW 3.5 mph - N/A   Overcast